Culdrose, United Kingdom

2:48 AM BST on March 26, 2017 (GMT +0100)
Culdrose Navy

Weather History for EGDR - September, 2013

Change the Weather History Date:

Sunday, September 8, 2013

  Actual Average Record
Temperature  
Mean Temperature 55 °F -  
Max Temperature 60 °F 60 °F 69 °F (2007)
Min Temperature 50 °F 51 °F 44 °F (2012)
Degree Days  
Heating Degree Days 10    
Growing Degree Days 5 (Base 50)    
Moisture  
Dew Point 51 °F    
Average Humidity 84    
Maximum Humidity 94    
Minimum Humidity 67    
Precipitation  
Precipitation 0.20 in - - ()
Sea Level Pressure  
Sea Level Pressure 30.05 in    
Wind  
Wind Speed 7 mph ()    
Max Wind Speed 17 mph    
Max Gust Speed 29 mph    
Visibility 6.7 miles    
Events Rain    
Averages and records for this station are not official NWS values.
T = Trace of Precipitation, MM = Missing Value Source: Averaged Metar Reports

Daily Weather History Graph

Daily Weather History Graph

Search for Another Location

Airport or City:

Trip Planner

Search our weather history database for the weather conditions in past years. The results will help you decide how hot, cold, wet, or windy it might be!

Date:

Astronomy

Sep. 08, 2013 Rise Set
Actual Time 6:46 AM BST 7:49 PM BST
Civil Twilight 6:13 AM BST 8:22 PM BST
Nautical Twilight 5:33 AM BST 9:02 PM BST
Astronomical Twilight 4:50 AM BST 9:44 PM BST
Moon 10:12 AM BST (9/8) 8:50 PM BST (9/8)
Length of Visible Light 14h 09m
Length of Day
13h 03m
Waxing Crescent, 9% of the Moon is Illuminated
Sep 8
Waxing Crescent
Sep 12
First Quarter
Sep 19
Full
Sep 27
Last Quarter
Oct 5
New

Hourly Weather History & Observations

Time (BST) Temp. Dew Point Humidity Pressure Visibility Wind Dir Wind Speed Gust Speed Precip Events Conditions
12:50 AM 52 °F 48 °F 83% 30.06 in 12 mi WSW 4.6 mph - -   Partly Cloudy
12:50 AM 51.8 °F 48.2 °F 88% 30.04 in - WSW 4.6 mph - N/A   Clear
1:50 AM 53.6 °F 48.2 °F 82% 30.04 in 6.2 mi West 8.1 mph - N/A   Mostly Cloudy
2:50 AM 51.8 °F 48.2 °F 88% 30.04 in - WNW 4.6 mph - N/A   Clear
3:50 AM 51 °F 47 °F 83% 30.05 in 12 mi West 5.8 mph - - Rain Light Rain Showers
3:50 AM 51.8 °F 48.2 °F 88% 30.04 in 6.2 mi West 5.8 mph - N/A   Mostly Cloudy
4:50 AM 50.0 °F 48.2 °F 94% 30.04 in 6.2 mi WNW 4.6 mph - N/A Rain Light Rain
5:50 AM 50.0 °F 48.2 °F 94% 30.04 in 6.2 mi West 4.6 mph - N/A   Haze
6:50 AM 51 °F 48 °F 85% 30.06 in 12 mi West 6.9 mph - -   Partly Cloudy
6:50 AM 51.8 °F 48.2 °F 88% 30.04 in 6.2 mi West 6.9 mph - N/A   Mostly Cloudy
7:50 AM 51.8 °F 48.2 °F 88% 30.06 in 6.2 mi West 4.6 mph - N/A   Mostly Cloudy
8:50 AM 53.6 °F 50.0 °F 88% 30.06 in 6.2 mi WNW 2.3 mph - N/A   Mostly Cloudy
9:50 AM 55 °F 50 °F 78% 30.09 in 5 mi West 8.1 mph - -   Mostly Cloudy
9:50 AM 55.4 °F 50.0 °F 82% 30.06 in 5.0 mi West 8.1 mph - N/A   Mostly Cloudy
10:50 AM 55.4 °F 48.2 °F 77% 30.06 in 6.2 mi West 4.6 mph - N/A   Mostly Cloudy
11:50 AM 57.2 °F 48.2 °F 72% 30.06 in 6.2 mi West 6.9 mph - N/A   Mostly Cloudy
12:50 PM 59 °F 51 °F 67% 30.09 in 12 mi WSW 9.2 mph - -   Mostly Cloudy
12:50 PM 59.0 °F 51.8 °F 77% 30.06 in 6.2 mi WSW 9.2 mph - N/A   Mostly Cloudy
1:50 PM 59.0 °F 51.8 °F 77% 30.06 in 6.2 mi WSW 9.2 mph - N/A   Mostly Cloudy
2:50 PM 59.0 °F 51.8 °F 77% 30.06 in 6.2 mi WSW 10.4 mph - N/A   Mostly Cloudy
3:50 PM 60 °F 53 °F 72% 30.08 in 12 mi West 6.9 mph - -   Partly Cloudy
3:50 PM 60.8 °F 53.6 °F 77% 30.06 in 6.2 mi West 6.9 mph - N/A   Mostly Cloudy
4:50 PM 59.0 °F 53.6 °F 82% 30.06 in 6.2 mi WSW 8.1 mph - N/A   Mostly Cloudy
5:50 PM 59.0 °F 51.8 °F 77% 30.04 in 6.2 mi WSW 10.4 mph - N/A   Overcast
6:50 PM 58 °F 54 °F 82% 30.06 in 6 mi WSW 12.7 mph - - Rain Light Rain
6:50 PM 57.2 °F 53.6 °F 88% 30.04 in 6.2 mi WSW 12.7 mph - N/A Rain Light Rain
7:50 PM 55.4 °F 53.6 °F 94% 30.04 in 3.7 mi WSW 17.3 mph - N/A Rain Rain
8:50 PM 55.4 °F 51.8 °F 88% 30.04 in 6.2 mi SW 17.3 mph - N/A Rain Light Rain
9:50 PM 55 °F 53 °F 92% 30.05 in 6 mi SW 12.7 mph - - Rain Light Rain
9:50 PM 55.4 °F 53.6 °F 94% 30.04 in 6.2 mi SW 12.7 mph 24.2 mph N/A Rain Light Rain
10:50 PM 55.4 °F 53.6 °F 94% 30.01 in 2.5 mi South 11.5 mph - N/A Rain Light Rain
11:50 PM 55.4 °F 53.6 °F 94% 30.01 in 1.9 mi South 13.8 mph 28.8 mph N/A Rain Rain